STARLINK-32787, 62809

Orbit data source: Space-Track

STARLINK-32787, 62809 is a payload satellite owned by SpaceX/Seattle (US) in LEO that was launched on Fri, 24 Jan 2025 UTC via an FALCON 9 launch vehicle from the Air Force Western Test Range (AFWTR). Payload-class satellites include a variety of spacecraft equipped with specific instruments for various scientific and technological missions. These include communications satellites like Starlink; space stations such as the ISS; scientific satellites like the Hubble; Earth observation satellites from companies like Planet Labs, Umbra, and HawkEye 360; GPS; miniature CubeSats for education and research; and military/defense satellites.

Loading next visibility...
Identifier
62809, 2025-018D
Orbit
LEO
Last TLE update
10 hours ago
Origin
Manufacturer
SpaceX/Seattle
Mission
Operational Commercial Communications
Bus & Motor
STARLINK V2M, Unknown motor
Mass
730 kg wet, ~700 kg dry
Launch date (UTC)
2025-01-24 (5 months ago)
Launch vehicle
FALCON 9
Launch site
Air Force Western Test Range (AFWTR)
Object type
Payload
Rocket body
Debris
Shape & HBR
Box + 2 Pan, 29 m
Radar Cross Section
33.884 m², Large (>1 m²)

Expand to show TLE details & history

TLE from 10 hours ago
0 STARLINK-32787
1 62809U 25018D   25181.98989272  .00027698  00000-0  94391-3 0  9993
2 62809  53.1608  38.6070 0001307  71.4225 288.6918 15.30196199 25571
Epoch: 2025-06-30T23:45Z
TLE epoch observation values (Epoch: 2025-06-30T23:45:26.73Z)
Latitude
-0.00002°
Longitude
122.95383°
Altitude
475.839 km
Speed
7.629 km/s
True Right ascension
02h 34m 25s
True Declination
0° 00' 00"
Sunlit
Object was in daylight at epoch
Visualization orbit readout
Latitude
31.47668°
Longitude
148.23671°
Altitude
476.345 km
Speed
7.632 km/s
Apparent Right ascension
06h 22m 41s
Apparent Declination
-3° 19' 50"
Sunlit
Object is in daylight
Visualization observer readout
Local Sidereal Time
20:58:36
Azimuth
54.17° ENE
Elevation
-39.235°
Doppler factor
1
Orbital elements
Apogee altitude
476.378 km
Perigee altitude
474.587 km
Semi-major axis
6,853.62 km
Eccentricity
0.00013
Inclination
53.1608°
RAAN
38.607°
Arg. of periapsis
71.4225°
True anomaly
Unknown
Mean anomaly
288.6918°
Eccentric anomaly
Unknown
Mean motion
3.82528 °/min
Orbital period
94.11 mins
BSTAR
0.00094391
Loading maneuver chart data...
Loading SW <> Apogee altitude chart data...
Loading historical data...
Loading historical data...
Loading historical data...
Loading historical data...
Loading historical data...
Loading historical data...
Loading historical data...

STARLINK-32787 Visibility forecast

Observer location: undefined°, undefined°

Span
Click to sort rows by Start time (UTC) header in descending order
Start Az.
Max El. time (UTC)
Max El. Az.
Max El.
End time (UTC)
End Az.
7 mins2025-07-01 17:10:20.074Z227.311° WSW2025-07-01 17:13:20.074Z219.815° SW42.406°2025-07-01 17:17:20.074Z50.901° ENE
4 mins2025-07-01 22:08:20.074Z342.98° N2025-07-01 22:10:20.074Z18.338° NNE15.778°2025-07-01 22:12:20.074Z54.683° ENE
6 mins2025-07-01 23:46:20.074Z316.375° NNW2025-07-01 23:49:20.074Z91.235° ESE41.026°2025-07-01 23:52:20.074Z123.224° SE
|